STARLINK-3756, 52309

Orbit data source: Space-Track

STARLINK-3756, 52309 is a payload satellite owned by SpaceX/Seattle (US) in LEO that was launched on Thu, 21 Apr 2022 UTC via an FALCON 9 launch vehicle from the Air Force Eastern Test Range (AFETR). Payload-class satellites include a variety of spacecraft equipped with specific instruments for various scientific and technological missions. These include communications satellites like Starlink; space stations such as the ISS; scientific satellites like the Hubble; Earth observation satellites from companies like Planet Labs, Umbra, and HawkEye 360; GPS; miniature CubeSats for education and research; and military/defense satellites.

Loading next visibility...
Identifier
52309, 2022-041BA
Orbit
LEO
Country
Flag of USUS
Related business
Manufacturer
SpaceX/Seattle
Mission
Operational Commercial Communications
Bus & Motor
STARLINK, Unknown motor
Mass
297 kg wet, ~275 kg dry
Launch date (UTC)
2022-04-21 (4 years ago)
Launch vehicle
FALCON 9
Launch site
Air Force Eastern Test Range (AFETR)
Object type
Payload
Rocket body
Debris
Shape & HBR
Box + 1 Pan, 10.1 m
Radar Cross Section
11.087 m², Large (>1 m²)

Expand to show TLE details & history
Last TLE update: 10 hours ago

TLE from 10 hours ago
0 STARLINK-3756
1 52309U 22041BA  26130.10727257  .00000286  00000-0  36023-4 0  9995
2 52309  53.2143 173.4056 0000836 104.1202 255.9883 15.08840749225131
Epoch: 2026-05-10T02:34Z
TLE epoch observation values (Epoch: 2026-05-10T02:34:28.350Z)
Latitude
-0°
Longitude
-93.12763°
Altitude
540.778 km
Speed
7.593 km/s
True Right ascension
11h 33m 37s
True Declination
0° 00' 00"
Sunlit
Object was in full shadow at epoch
Visualization orbit readout
Latitude
Unknown
Longitude
Unknown
Altitude
Unknown
Speed
Unknown
Apparent Right ascension
Unknown
Apparent Declination
Unknown
Sunlit
N/A
Visualization observer readout
Local Sidereal Time
20:35:59
Azimuth
Unknown
Elevation
Unknown
Doppler factor
Unknown
Orbital elements
Apogee altitude
540.565 km
Perigee altitude
539.408 km
Semi-major axis
6,918.124 km
Eccentricity
0.00008
Inclination
53.2143°
RAAN
173.4056°
Arg. of periapsis
104.1202°
True anomaly
255.97901°
Mean anomaly
255.9883°
Eccentric anomaly
255.98365°
Mean motion
3.7719 °/min
Orbital period
95.44 mins
BSTAR
0.000036023
Loading maneuver chart data...
Computing Atmospheric mass density...
Loading historical data...
Loading historical data...
Loading historical data...
Loading historical data...
Loading historical data...
Loading historical data...
Loading historical data...

Documentation

Showing up to 5 results
|